Location: Rio Negrinho
(26.2394°S, 49.4999°W)
Time: 20:11:54
(UTC+00:00)

Cosmos 1844 - Pass Details

Date: 05 October 2020
Orbit: 824 x 866 km, 70.9° (Epoch: 20 October)

Event Time Altitude Azimuth Distance (km) Brightness Sun altitude
Exits shadow 07:46:10 - 338° (NNW) 2,856 6.1 -15.5°
Reaches altitude 10° 07:47:15 10° 337° (NNW) 2,447 5.8 -15.3°
Maximum altitude 07:52:52 77° 251° (WSW) 877 3.6 -14.1°
Drops below altitude 10° 07:58:37 10° 165° (SSE) 2,503 6.5 -12.8°
Sets 08:01:07 0° 163° (SSE) 3,451 7.3 -12.3°
